Weather History for Hat Yai, Thailand

Change the Weather History Date:

Wednesday, August 21, 2013

  Actual Average Record
Temperature  
Mean Temperature 81 °F -  
Max Temperature 92 °F 87 °F 95 °F (2003)
Min Temperature 70 °F 74 °F 70 °F (2013)
Cooling Degree Days 16    
Growing Degree Days 31 (Base 50)    
Moisture  
Dew Point 71 °F    
Average Humidity 73    
Maximum Humidity 94    
Minimum Humidity 42    
Precipitation  
Precipitation 0.00 in - - ()
Sea Level Pressure  
Sea Level Pressure 29.79 in    
Wind  
Wind Speed 3 mph ()    
Max Wind Speed 13 mph    
Max Gust Speed -    
Visibility 6.0 miles    
Events      
Averages and records for this station are not official NWS values.
T = Trace of Precipitation, MM = Missing Value Source: Averaged Metar Reports

Daily Weather History Graph

Daily Weather History Graph

Search for Another Location

Airport:

Trip Planner

Search our weather history database for the weather conditions in past years. The results will help you decide how hot, cold, wet, or windy it might be!

Date:

Astronomy

Aug. 21, 2013 Rise Set
Actual Time 6:12 AM ICT 6:30 PM ICT
Civil Twilight 5:50 AM ICT 6:52 PM ICT
Nautical Twilight 5:26 AM ICT 7:17 PM ICT
Astronomical Twilight 5:01 AM ICT 7:41 PM ICT
Moon 6:39 PM ICT (8/21) 6:03 AM ICT (8/21)
Length of Visible Light 13h 01m
Length of Day
12h 18m
Full, 100% of the Moon is Illuminated
Aug 21
Full
Aug 28
Last Quarter
Sep 5
New
Sep 13
First Quarter
Sep 19
Full

Hourly Weather History & Observations

Time (ICT) Temp. Heat Index Dew Point Humidity Pressure Visibility Wind Dir Wind Speed Gust Speed Precip Events Conditions
12:00 AM 73.4 °F - 71.6 °F 94% 29.83 in 6.2 mi Calm Calm - N/A   Scattered Clouds
12:30 AM 73.4 °F - 71.6 °F 94% 29.83 in 6.2 mi Calm Calm - N/A   Scattered Clouds
1:00 AM 74 °F - 72 °F 90% 29.83 in 6 mi Calm Calm - -   Scattered Clouds
1:00 AM 73.4 °F - 71.6 °F 94% 29.83 in 6.2 mi Calm Calm - N/A   Scattered Clouds
1:30 AM 73.4 °F - 69.8 °F 88% 29.83 in 6.2 mi East 2.3 mph - N/A   Scattered Clouds
2:00 AM 73.4 °F - 71.6 °F 94% 29.80 in 6.2 mi Calm Calm - N/A   Scattered Clouds
2:30 AM 73.4 °F - 71.6 °F 94% 29.80 in 5.0 mi ENE 2.3 mph - N/A   Scattered Clouds
3:00 AM 73.4 °F - 71.6 °F 94% 29.77 in 5.0 mi East 2.3 mph - N/A   Scattered Clouds
3:30 AM 71.6 °F - 69.8 °F 94% 29.77 in 5.0 mi Calm Calm - N/A   Scattered Clouds
4:00 AM 71.6 °F - 69.8 °F 94% 29.77 in 5.0 mi Calm Calm - N/A   Mostly Cloudy
4:30 AM 71.6 °F - 69.8 °F 94% 29.77 in 5.0 mi ENE 3.5 mph - N/A   Mostly Cloudy
5:00 AM 71.6 °F - 69.8 °F 94% 29.77 in 5.0 mi Calm Calm - N/A   Mostly Cloudy
5:30 AM 71.6 °F - 69.8 °F 94% 29.77 in 4.3 mi Calm Calm - N/A   Mostly Cloudy
6:00 AM 71.6 °F - 69.8 °F 94% 29.77 in 5.0 mi Calm Calm - N/A   Mostly Cloudy
6:30 AM 71.6 °F - 69.8 °F 94% 29.77 in 6.2 mi Calm Calm - N/A   Mostly Cloudy
7:00 AM 73 °F - 71 °F 92% 29.80 in 6 mi Calm Calm - -   Scattered Clouds
7:00 AM 73.4 °F - 71.6 °F 94% 29.77 in 6.2 mi Calm Calm - N/A   Mostly Cloudy
7:30 AM 77.0 °F - 75.2 °F 94% 29.80 in 6.2 mi WSW 2.3 mph - N/A   Mostly Cloudy
8:00 AM 80.6 °F 86.2 °F 75.2 °F 84% 29.80 in 6.2 mi SE 2.3 mph - N/A   Mostly Cloudy
8:30 AM 82.4 °F 89.5 °F 75.2 °F 79% 29.83 in 6.2 mi SE 3.5 mph - N/A   Mostly Cloudy
9:00 AM 84.2 °F 92.3 °F 75.2 °F 74% 29.80 in 6.2 mi WSW 5.8 mph - N/A   Mostly Cloudy
9:30 AM 86.0 °F 93.4 °F 73.4 °F 66% 29.83 in 6.2 mi SW 8.1 mph - N/A   Mostly Cloudy
10:00 AM 86.0 °F 93.4 °F 73.4 °F 66% 29.80 in 6.2 mi WSW 6.9 mph - N/A   Mostly Cloudy
10:30 AM 87.8 °F 92.6 °F 69.8 °F 55% 29.80 in 6.2 mi West 10.4 mph - N/A   Mostly Cloudy
11:00 AM 89.6 °F 96.2 °F 71.6 °F 55% 29.80 in 6.2 mi WSW 10.4 mph - N/A   Mostly Cloudy
11:30 AM 89.6 °F 96.2 °F 71.6 °F 55% 29.80 in 6.2 mi SW 9.2 mph - N/A   Mostly Cloudy
12:00 PM 89.6 °F 96.2 °F 71.6 °F 55% 29.77 in 6.2 mi WSW 8.1 mph - N/A   Mostly Cloudy
12:30 PM 91.4 °F 98.4 °F 71.6 °F 52% 29.77 in 6.2 mi SW 8.1 mph - N/A   Mostly Cloudy
1:00 PM 91 °F - 71 °F 42% 29.77 in 6 mi SW 10.4 mph - -   Scattered Clouds
1:00 PM 91.4 °F 98.4 °F 71.6 °F 52% 29.77 in 6.2 mi SW 10.4 mph - N/A   Mostly Cloudy
1:30 PM 91.4 °F 96.8 °F 69.8 °F 49% 29.74 in 6.2 mi WSW 6.9 mph - N/A   Mostly Cloudy
2:00 PM 91.4 °F 98.4 °F 71.6 °F 52% 29.74 in 6.2 mi WSW 11.5 mph - N/A   Mostly Cloudy
2:30 PM 91.4 °F 96.8 °F 69.8 °F 49% 29.74 in 6.2 mi SW 9.2 mph - N/A   Mostly Cloudy
3:00 PM 93.2 °F 97.7 °F 68.0 °F 44% 29.74 in 6.2 mi WSW 9.2 mph - N/A   Mostly Cloudy
3:30 PM 93.2 °F 98.8 °F 69.8 °F 46% 29.71 in 6.2 mi West 10.4 mph - N/A   Mostly Cloudy
4:00 PM 91.4 °F 95.4 °F 68.0 °F 46% 29.71 in 6.2 mi WSW 12.7 mph - N/A   Mostly Cloudy
4:30 PM 91.4 °F 96.8 °F 69.8 °F 49% 29.74 in 6.2 mi WSW 10.4 mph - N/A   Mostly Cloudy
5:00 PM 89.6 °F 94.7 °F 69.8 °F 52% 29.74 in 6.2 mi West 11.5 mph - N/A   Mostly Cloudy
5:30 PM 89.6 °F 94.7 °F 69.8 °F 52% 29.74 in 6.2 mi West 9.2 mph - N/A   Mostly Cloudy
6:00 PM 87.8 °F 92.6 °F 69.8 °F 55% 29.74 in 6.2 mi West 9.2 mph - N/A   Mostly Cloudy
6:30 PM 86.0 °F 90.4 °F 69.8 °F 58% 29.77 in 6.2 mi West 5.8 mph - N/A   Mostly Cloudy
7:00 PM 84 °F - 71 °F 56% 29.76 in 6 mi WSW 4.6 mph - -   Scattered Clouds
7:00 PM 84.2 °F 89.6 °F 71.6 °F 66% 29.77 in 6.2 mi WSW 4.6 mph - N/A   Mostly Cloudy
7:30 PM 82.4 °F 87.2 °F 71.6 °F 70% 29.77 in 6.2 mi WSW 4.6 mph - N/A   Mostly Cloudy
8:00 PM 82.4 °F 87.2 °F 71.6 °F 70% 29.80 in 6.2 mi WSW 4.6 mph - N/A   Mostly Cloudy
8:30 PM 80.6 °F 84.6 °F 71.6 °F 74% 29.80 in 6.2 mi SW 3.5 mph - N/A   Mostly Cloudy
9:00 PM 80.6 °F 84.6 °F 71.6 °F 74% 29.83 in 6.2 mi South 3.5 mph - N/A   Mostly Cloudy
9:30 PM 78.8 °F - 71.6 °F 78% 29.83 in 6.2 mi SE 3.5 mph - N/A   Mostly Cloudy
10:00 PM 78.8 °F - 73.4 °F 83% 29.86 in 6.2 mi SE 4.6 mph - N/A   Mostly Cloudy
10:30 PM 77.0 °F - 73.4 °F 89% 29.86 in 6.2 mi SSE 2.3 mph - N/A   Mostly Cloudy
11:00 PM 77.0 °F - 73.4 °F 89% 29.83 in 6.2 mi SSE 2.3 mph - N/A   Scattered Clouds
11:30 PM 77.0 °F - 71.6 °F 83% 29.83 in 6.2 mi SSE 3.5 mph - N/A   Scattered Clouds